Flag for Mexico Weather past 2 weeks in Mexicali, Baja California, Mexico

Now
51 °F

Clear.


Feels Like: 48 °F
Forecast: 49 / 74 °F
Wind: 8 mph from West

Location: Imperial County Airport

Current Time: Jan 28, 2015 at 1:58:09 AM

Latest Report: Jan 28, 2015 at 12:53 AM


Visibility: 8 mi

Pressure: 30.18 "Hg

Humidity: 96%

Dew point: 50 °F

Location of MexicaliLocation

Historic Weather in Mexicali — Graph

°F

Mexicali temperature yesterday

Maximum temperature yesterday: 66 °F (at 2:53 PM)
Minimum temperature yesterday: 52 °F (at 3:53 AM)
Average temperature yesterday: 58 °F

Past Weeks' High & Low Weather Summary

 TemperatureHumidityPressure
High79 °F (Jan 19, 2:53 PM)100% (Jan 27, 3:53 AM)30.33 "Hg (Jan 27, 3:53 AM)
Low37 °F (Jan 24, 5:53 AM)8% (Jan 22, 11:53 AM)29.84 "Hg (Jan 20, 4:53 PM)
Average58 °F45%30.12 "Hg
* Reported Jan 13 12:53 AM — Jan 28 12:53 AM, Mexicali, Weather by CustomWeather, © 2014

Note: Actual official high and low records may vary slightly from our data, if they occured in-between our weather recording intervals... More about our weather records

Advertising

Mexicali weather history for previous 24 hours

 ConditionsComfort  
Time TempWeatherWind HumidityBarometerVisibility
12:53 AM
Jan 28
51 °FClear.8 mph96%30.18 "Hg8 mi
11:53 PM
Jan 27
52 °FFog.5 mph93%30.17 "Hg5 mi
10:53 PM52 °FClear.No wind93%30.17 "Hg7 mi
9:53 PM53 °FFog.5 mph96%30.17 "Hg6 mi
8:53 PM54 °FClear.3 mph93%30.18 "Hg8 mi
7:53 PM55 °FClear.5 mph90%30.16 "Hg10 mi
6:53 PM60 °FClear.3 mph80%30.16 "Hg10 mi
5:53 PM63 °FClear.No wind73%30.14 "Hg10 mi
4:53 PM65 °FSunny.5 mph68%30.15 "Hg10 mi
3:53 PM66 °FPartly sunny.3 mph65%30.15 "Hg10 mi
3:04 PM66 °FOvercast.3 mph65%30.16 "Hg10 mi
2:53 PM66 °FOvercast.5 mph65%30.16 "Hg10 mi
1:53 PM65 °FMostly cloudy.3 mph68%30.17 "Hg10 mi
12:53 PM65 °FOvercast.5 mph68%30.17 "Hg10 mi
11:53 AM63 °FMostly cloudy.No wind73%30.20 "Hg10 mi
10:53 AM63 °FOvercast.3 mph73%30.23 "Hg10 mi
9:53 AM61 °FPartly sunny.No wind81%30.24 "Hg10 mi
9:04 AM58 °FMore clouds than sun.3 mph93%30.24 "Hg10 mi
8:53 AM57 °FMostly cloudy.3 mph96%30.24 "Hg10 mi
7:53 AM54 °FOvercast.No wind97%30.23 "Hg8 mi
6:53 AM52 °FFog.3 mph100%30.22 "Hg0 mi
5:53 AM54 °FFog.3 mph100%30.20 "Hg6 mi
5:02 AM54 °FFog.No wind97%30.19 "Hg3 mi
4:53 AM53 °FFog.No wind100%30.18 "Hg1 mi
3:53 AM52 °FFog.5 mph100%30.17 "Hg0 mi
3:00 AM56 °FPassing clouds.3 mph93%30.16 "Hg8 mi
1:53 AM57 °FOvercast.No wind93%30.16 "Hg10 mi
Weather by CustomWeather, © 2014

See weather overviewHow to use our weather pages